Notices

What's New in latest Release from April 7th, 2021:

- Updated Glossary, including Speed of Maximum Gust, and Total Hourly Precipitation

- Updated national and regional climate services offices contacts and prices information

- Addition of station inventory lists for 1981-2010, 1971-2000, and 1961-1990 Normals.

If you haven't already, please take our survey and provide feedback about our website: https://eccc.sondage-survey.ca/f/LanguageSelection.aspx?s=442ca660-fcf1-47c0-95a9-59707d6fd709

Hourly Data Report for July 24, 2016

TORONTO CITY
ONTARIO

43°40'00.000" N
79°24'00.000" W
112.50 m
6158355
71508
XTO

Download Data

Hourly Data (July 2016)
Hourly Data Report for July 24, 2016
TIME
LST
Temp Definition
°C
Dew Point Definition
°C
Rel Hum Definition
%
Precip. Amount Definition
mm

Wind Dir Definition
10's deg

Wind Spd Definition
km/h
Visibility Definition
km
Stn Press Definition
kPa
Hmdx Definition


Wind Chill Definition


Weather Definition


00:00 24.1 15.2 57 0.0 LegendMM LegendMM   100.22 28   LegendNANA
01:00 24.1 14.9 57 0.0 LegendMM LegendMM   100.20 28   LegendNANA
02:00 23.4 15.3 60 0.0 LegendMM LegendMM   100.22 28   LegendNANA
03:00 22.5 15.2 63 0.0 LegendMM LegendMM   100.25 27   LegendNANA
04:00 22.5 15.3 64 0.0 LegendMM LegendMM   100.26 27   LegendNANA
05:00 23.5 14.4 57 0.0 LegendMM LegendMM   100.29 27   LegendNANA
06:00 22.7 14.2 59 0.0 LegendMM LegendMM   100.30 26   LegendNANA
07:00 23.3 15.5 61 0.0 LegendMM LegendMM   100.31 28   LegendNANA
08:00 22.7 15.1 62 0.0 LegendMM LegendMM   100.32 27   LegendNANA
09:00 22.3 15.9 67 0.0 LegendMM LegendMM   100.33 27   LegendNANA
10:00 22.9 16.6 68 0.0 LegendMM LegendMM   100.32 28   LegendNANA
11:00 24.5 17.3 64 0.0 LegendMM LegendMM   100.25 30   LegendNANA
12:00 25.5 17.6 62 0.0 LegendMM LegendMM   100.21 31   LegendNANA
13:00 25.4 17.5 62 0.0 LegendMM LegendMM   100.18 31   LegendNANA
14:00 23.9 17.7 68 0.0 LegendMM LegendMM   100.13 30   LegendNANA
15:00 24.6 17.9 66 0.0 LegendMM LegendMM   100.06 31   LegendNANA
16:00 23.8 17.2 67 0.0 LegendMM LegendMM   100.08 29   LegendNANA
17:00 24.5 18.0 67 0.0 LegendMM LegendMM   100.02 31   LegendNANA
18:00 24.0 17.8 68 0.0 LegendMM LegendMM   100.06 30   LegendNANA
19:00 24.3 17.5 66 0.0 LegendMM LegendMM   100.01 30   LegendNANA
20:00 23.6 17.3 68 0.0 LegendMM LegendMM   99.97 29   LegendNANA
21:00 23.1 18.0 73 0.0 LegendMM LegendMM   99.99 29   LegendNANA
22:00 22.9 18.4 76 0.0 LegendMM LegendMM   99.93 29   LegendNANA
23:00 22.7 18.8 79 0.0 LegendMM LegendMM   99.85 29   LegendNANA

Notes on Data Quality.

Legend

  • E = Estimated
  • M = Missing
  • NA = Not Available*
  • [empty] = Indicates an unobserved value
Date modified: